Location: Endfield
(51.6667°N, 0.0667°W)
Time: 03:16:27
(UTC+00:00)

USA 306 - Pass Details

Date: 19 May 2024
Orbit: 496 x 519 km, 54.0° (Epoch: 15 February)

Event Time Altitude Azimuth Distance (km) Brightness Sun altitude
Rises 23:08:50 0° 291° (WNW) 2,559 6.7 -17.5°
Reaches altitude 10° 23:11:03 10° 286° (WNW) 1,696 5.6 -17.6°
Maximum altitude 23:14:48 47° 212° (SSW) 664 2.9 -17.7°
Enters shadow 23:15:15 45° 188° (S) 689 2.8 -17.7°
